Weather History for Poughkeepsie, NY

Change the Weather History Date:

Friday, August 29, 2014

  Actual Average Record
Temperature  
Mean Temperature 63 °F 69 °F  
Max Temperature 78 °F 81 °F 97 °F (1953)
Min Temperature 48 °F 57 °F 38 °F (1986)
Degree Days  
Heating Degree Days 2 1  
Month to date heating degree days 5 7  
Since 1 June heating degree days 12 61  
Since 1 July heating degree days 5 12  
Cooling Degree Days 0 0  
Month to date cooling degree days 146 193  
Year to date cooling degree days 582 596  
Since 1 June cooling degree days 549 560  
Growing Degree Days 14 (Base 50)    
Moisture  
Dew Point 53 °F    
Average Humidity 70    
Maximum Humidity 93    
Minimum Humidity 42    
Precipitation  
Precipitation 0.00 in 0.11 in 2.33 in (1988)
Month to date precipitation 2.83 3.97  
Year to date precipitation 24.12 30.55  
Sea Level Pressure  
Sea Level Pressure 30.15 in    
Wind  
Wind Speed 2 mph (SE)    
Max Wind Speed 7 mph    
Max Gust Speed -    
Visibility 10 miles    
Events      
T = Trace of Precipitation, MM = Missing Value Source: NWS Daily Summary

Daily Weather History Graph

Daily Weather History Graph

Search for Another Location

Airport:

Trip Planner

Search our weather history database for the weather conditions in past years. The results will help you decide how hot, cold, wet, or windy it might be!

Date:

Astronomy

Aug. 29, 2014 Rise Set
Actual Time 6:18 AM EDT 7:33 PM EDT
Civil Twilight 5:49 AM EDT 8:02 PM EDT
Nautical Twilight 5:15 AM EDT 8:36 PM EDT
Astronomical Twilight 4:38 AM EDT 9:12 PM EDT
Moon 10:08 AM EDT (8/29) 9:25 PM EDT (8/29)
Length of Visible Light 14h 12m
Length of Day
13h 15m
Waxing Crescent, 15% of the Moon is Illuminated
Aug 29
Waxing Crescent
Sep 2
First Quarter
Sep 8
Full
Sep 15
Last Quarter
Sep 24
New

Hourly Weather History & Observations

Time (EDT) Temp. Dew Point Humidity Pressure Visibility Wind Dir Wind Speed Gust Speed Precip Events Conditions
12:53 AM 55.9 °F 52.0 °F 87% 30.07 in 10.0 mi Calm Calm - N/A   Clear
1:53 AM 53.1 °F 51.1 °F 93% 30.08 in 10.0 mi ESE 3.5 mph - N/A   Clear
2:53 AM 53.1 °F 50.0 °F 89% 30.08 in 9.0 mi Calm Calm - N/A   Clear
3:53 AM 51.1 °F 48.9 °F 92% 30.09 in 10.0 mi Calm Calm - N/A   Clear
4:53 AM 51.1 °F 48.0 °F 89% 30.10 in 10.0 mi Calm Calm - N/A   Clear
5:53 AM 50.0 °F 48.0 °F 93% 30.12 in 10.0 mi Calm Calm - N/A   Clear
6:53 AM 50.0 °F 48.0 °F 93% 30.15 in 10.0 mi Calm Calm - N/A   Clear
7:53 AM 55.0 °F 52.0 °F 89% 30.17 in 10.0 mi Calm Calm - N/A   Clear
8:53 AM 62.1 °F 54.0 °F 75% 30.18 in 10.0 mi Calm Calm - N/A   Clear
9:53 AM 66.9 °F 52.0 °F 59% 30.19 in 10.0 mi North 6.9 mph - N/A   Clear
10:53 AM 69.1 °F 53.1 °F 57% 30.19 in 10.0 mi Calm Calm - N/A   Clear
11:53 AM 72.0 °F 53.1 °F 51% 30.18 in 10.0 mi Variable 5.8 mph - N/A   Partly Cloudy
12:53 PM 73.9 °F 53.1 °F 48% 30.17 in 10.0 mi East 5.8 mph - N/A   Scattered Clouds
1:53 PM 75.9 °F 53.1 °F 45% 30.17 in 10.0 mi West 6.9 mph - N/A   Partly Cloudy
2:53 PM 77.0 °F 52.0 °F 42% 30.16 in 10.0 mi Variable 3.5 mph - N/A   Clear
4:53 PM 77.0 °F 53.1 °F 43% 30.15 in 10.0 mi Variable 3.5 mph - N/A   Clear
5:53 PM 75.9 °F 53.1 °F 45% 30.16 in 10.0 mi Variable 3.5 mph - N/A   Clear
6:53 PM 72.0 °F 57.0 °F 59% 30.16 in 10.0 mi SE 3.5 mph - N/A   Clear
7:53 PM 66.0 °F 57.9 °F 75% 30.17 in 10.0 mi Calm Calm - N/A   Clear
8:53 PM 66.9 °F 55.9 °F 68% 30.19 in 10.0 mi SSE 3.5 mph - N/A   Clear
9:53 PM 64.9 °F 55.9 °F 73% 30.22 in 10.0 mi Calm Calm - N/A   Clear
11:53 PM 61.0 °F 55.0 °F 81% 30.23 in 10.0 mi SSE 5.8 mph - N/A   Clear